Lorraine — A8IZ3 — position and weather

sailwx.info

Track history (hours):
 
Tides and Currents Weather Stations Pressure Air Temp Water Temp Dewpoint Dewpoint Depression Visibility Wind Speed Wind Dir Waves Ship Positions

Lorraine

Last reported at 2014-Oct-18 23:32 UTC. Time now 2014-Oct-21 21:33 UTC.
Position N 36°22' E 014°47'.

Length 221 m; draft 10.3 m.

Type: Ship. MMSI: 636012905.

Date/timePositionNaut miles runAvg speedWind from/ knotsBaromVisibWave heightAir tempDewpointWater temp
2014-Oct-18 23:32N 36°22' E 014°47'1414.9
2014-Oct-18 22:33N 36°28' E 014°31'1515.2
2014-Oct-18 21:33N 36°36' E 014°14'1515.2
2014-Oct-18 20:33N 36°44' E 013°58'1515.2
2014-Oct-18 19:33N 36°51' E 013°42'1515.0
2014-Oct-18 18:33N 36°59' E 013°26'3014.9
2014-Oct-18 16:33N 37°13' E 012°53'14714.7
2014-Oct-18 06:33N 38°31' E 010°14'1814.8
2014-Oct-18 05:20N 38°41' E 009°55'1214.9
2014-Oct-18 04:32N 38°48' E 009°43'1515.0
2014-Oct-18 03:33N 38°56' E 009°27'1514.6
2014-Oct-18 02:33N 39°05' E 009°12'1010.0
2014-Oct-18 01:32N 39°13' E 009°04'0 0.0
2014-Oct-18 00:32N 39°13' E 009°04'0 0.0
2014-Oct-17 23:31N 39°13' E 009°04'0 0.0
2014-Oct-17 22:31N 39°13' E 009°04'0 0.0
2014-Oct-17 21:34N 39°13' E 009°04'0 0.0
2014-Oct-17 20:33N 39°13' E 009°04'0 0.0
2014-Oct-17 19:33N 39°13' E 009°04'0 0.0
2014-Oct-17 18:32N 39°13' E 009°04'0 0.0
2014-Oct-17 17:32N 39°13' E 009°04'0 0.0
2014-Oct-17 16:31N 39°13' E 009°04'0 0.0
2014-Oct-17 15:31N 39°13' E 009°04'0 0.0
2014-Oct-17 14:33N 39°13' E 009°04'0 0.0
2014-Oct-17 13:33N 39°13' E 009°04'0 0.0
2014-Oct-17 12:33N 39°13' E 009°04'0 0.0
2014-Oct-17 11:32N 39°13' E 009°04'0 0.0
2014-Oct-17 10:32N 39°13' E 009°04'1 0.5
2014-Oct-17 09:33N 39°13' E 009°04'7 6.8
2014-Oct-17 08:33N 39°07' E 009°08'1514.7
2014-Oct-17 07:33N 38°60' E 009°24'238 6.4
2014-Oct-15 18:04N 40°27' E 014°13'713.8
2014-Oct-15 17:33N 40°32' E 014°06'1413.8
2014-Oct-15 16:34N 40°44' E 014°14'7 5.3
2014-Oct-15 15:18N 40°50' E 014°17'0 0.0
2014-Oct-15 14:33N 40°50' E 014°17'0 0.0
2014-Oct-15 13:33N 40°50' E 014°17'0 0.0
2014-Oct-15 12:32N 40°50' E 014°17'9 1.0
2014-Oct-15 03:22N 40°43' E 014°11'19014.8
2014-Oct-14 14:33N 42°03' E 010°21'1915.6
2014-Oct-14 13:21N 42°15' E 010°01'4415.6
2014-Oct-14 10:33N 42°58' E 009°60'1716.6
2014-Oct-14 09:33N 43°14' E 010°05'1716.6
2014-Oct-14 08:33N 43°30' E 010°13'6 6.0
2014-Oct-14 07:33N 43°35' E 010°18'0 0.0
2014-Oct-14 06:33N 43°35' E 010°18'0 0.0
2014-Oct-14 05:33N 43°35' E 010°18'0 0.0
2014-Oct-14 04:33N 43°35' E 010°18'0 0.0
2014-Oct-14 03:33N 43°35' E 010°18'0 0.0
2014-Oct-14 02:33N 43°35' E 010°18'0 0.0
2014-Oct-14 01:33N 43°35' E 010°18'0 0.0
2014-Oct-14 00:33N 43°35' E 010°18'0 0.0
2014-Oct-13 23:33N 43°35' E 010°18'0 0.0
2014-Oct-13 22:33N 43°35' E 010°18'0 0.0
2014-Oct-13 21:33N 43°35' E 010°18'0 0.0
2014-Oct-13 20:33N 43°35' E 010°18'0 0.0
2014-Oct-13 19:33N 43°35' E 010°18'3 2.9
2014-Oct-13 18:33N 43°32' E 010°17'4 3.9
2014-Oct-13 17:33N 43°29' E 010°13'0 0.4
2014-Oct-13 16:33N 43°29' E 010°13'2 1.8
2014-Oct-13 15:33N 43°30' E 010°11'1413.8
2014-Oct-13 14:33N 43°32' E 009°52'1615.6
2014-Oct-13 13:33N 43°42' E 009°35'1716.6
2014-Oct-13 12:33N 43°53' E 009°18'1616.1
2014-Oct-13 11:33N 44°06' E 009°06'1615.9
2014-Oct-13 10:33N 44°21' E 008°57'4 4.0
2014-Oct-13 09:33N 44°24' E 008°54'0 0.0
2014-Oct-13 08:33N 44°24' E 008°54'0 0.0
2014-Oct-13 07:33N 44°24' E 008°54'0 0.0
2014-Oct-13 06:33N 44°24' E 008°54'0 0.0
2014-Oct-13 05:33N 44°24' E 008°54'0 0.0
2014-Oct-13 04:33N 44°24' E 008°54'0 0.0
2014-Oct-13 03:33N 44°24' E 008°54'0 0.0
2014-Oct-13 02:33N 44°24' E 008°54'0 0.0
2014-Oct-13 01:33N 44°24' E 008°54'0 0.0
2014-Oct-13 00:33N 44°24' E 008°54'0 0.0
2014-Oct-12 23:33N 44°24' E 008°54'0 0.0
2014-Oct-12 22:33N 44°24' E 008°54'0 0.0
2014-Oct-12 21:33N 44°24' E 008°54'0 0.0
2014-Oct-12 20:33N 44°24' E 008°54'0 0.0
2014-Oct-12 19:33N 44°24' E 008°54'0 0.0
2014-Oct-12 18:33N 44°24' E 008°54'2 1.8
2014-Oct-12 17:33N 44°24' E 008°56'6 5.7
2014-Oct-12 16:33N 44°20' E 008°50'6 6.0
2014-Oct-12 15:33N 44°25' E 008°47'0 0.0
2014-Oct-12 14:32N 44°25' E 008°47'0 0.0
2014-Oct-12 13:33N 44°25' E 008°47'0 0.0
2014-Oct-12 12:33N 44°25' E 008°47'0 0.0
2014-Oct-12 11:33N 44°25' E 008°47'0 0.0
2014-Oct-12 10:27N 44°25' E 008°47'0 0.0
2014-Oct-12 09:33N 44°25' E 008°47'0 0.0
2014-Oct-12 08:32N 44°25' E 008°47'0 0.0
2014-Oct-12 07:33N 44°25' E 008°47'0 0.0
2014-Oct-12 06:32N 44°25' E 008°47'0 0.0
2014-Oct-12 05:33N 44°25' E 008°47'0 0.0
2014-Oct-12 03:31N 44°25' E 008°47'0 0.0
2014-Oct-12 02:33N 44°25' E 008°47'0 0.0
2014-Oct-12 01:33N 44°25' E 008°47'0 0.0
2014-Oct-12 00:30N 44°25' E 008°47'0 0.0
2014-Oct-11 23:33N 44°25' E 008°47'0 0.0
2014-Oct-11 22:25N 44°25' E 008°47'0 0.0
2014-Oct-11 21:14N 44°25' E 008°47'0 0.0
2014-Oct-11 20:23N 44°25' E 008°47'0 0.0
2014-Oct-11 19:32N 44°25' E 008°47'4 3.5
2014-Oct-11 18:32N 44°23' E 008°43'1010.5
2014-Oct-11 17:33N 44°13' E 008°49'1515.6
2014-Oct-11 16:33N 43°59' E 008°59'1515.3
2014-Oct-11 15:33N 43°46' E 009°08'1515.4
2014-Oct-11 14:33N 43°32' E 009°17'1615.6
2014-Oct-11 13:33N 43°18' E 009°27'1615.7
2014-Oct-11 12:33N 43°03' E 009°35'3315.8
2014-Oct-11 10:29N 42°32' E 009°48'9515.2
2014-Oct-11 04:14N 40°57' E 010°02'9215.7
2014-Oct-10 22:22N 39°26' E 009°48'1915.7
2014-Oct-10 21:10N 39°08' E 009°43'914.9
2014-Oct-10 20:33N 39°01' E 009°36'1312.5
2014-Oct-10 19:33N 39°01' E 009°20'1313.3
2014-Oct-10 18:33N 39°09' E 009°06'4 3.6
2014-Oct-10 17:33N 39°13' E 009°04'0 0.0
2014-Oct-10 16:33N 39°13' E 009°04'0 0.0
2014-Oct-10 15:33N 39°13' E 009°04'0 0.0
2014-Oct-10 14:33N 39°13' E 009°04'0 0.0
2014-Oct-10 13:33N 39°13' E 009°04'0 0.0
2014-Oct-10 12:33N 39°13' E 009°04'0 0.0
2014-Oct-10 11:33N 39°13' E 009°04'0 0.0
2014-Oct-10 10:33N 39°13' E 009°04'0 0.0
2014-Oct-10 09:33N 39°13' E 009°04'0 0.0
2014-Oct-10 08:33N 39°13' E 009°04'0 0.0
2014-Oct-10 07:33N 39°13' E 009°04'0 0.0
2014-Oct-10 06:33N 39°13' E 009°04'0 0.0
2014-Oct-10 05:33N 39°13' E 009°04'0 0.0
2014-Oct-10 04:33N 39°13' E 009°04'0 0.0
2014-Oct-10 03:33N 39°13' E 009°04'0 0.0
2014-Oct-10 02:33N 39°13' E 009°04'0 0.0
2014-Oct-10 01:33N 39°13' E 009°04'0 0.0
2014-Oct-10 00:33N 39°13' E 009°04'0 0.0
2014-Oct-09 23:33N 39°13' E 009°04'0 0.4
2014-Oct-09 22:33N 39°13' E 009°04'7 6.8
2014-Oct-09 21:33N 39°07' E 009°08'1 1.5
2014-Oct-09 20:33N 39°06' E 009°09'7 6.6
2014-Oct-09 19:33N 39°02' E 009°16'1616.3
2014-Oct-09 18:33N 38°53' E 009°34'1616.4
2014-Oct-09 17:33N 38°43' E 009°51'1716.5
2014-Oct-09 16:32N 38°34' E 010°08'18116.4
2014-Oct-09 05:32N 36°60' E 013°23'1616.3
2014-Oct-09 04:34N 36°52' E 013°41'1616.1
2014-Oct-09 03:34N 36°44' E 013°58'1616.3
2014-Oct-09 02:33N 36°36' E 014°16'1716.5
2014-Oct-09 01:33N 36°27' E 014°33'  
Track history (hours):
 
Tides and Currents Weather Stations Pressure Air Temp Water Temp Dewpoint Dewpoint Depression Visibility Wind Speed Wind Dir Waves Ship Positions

Lorraine

Last reported at 2014-Oct-18 23:32 UTC. Time now 2014-Oct-21 21:33 UTC.
Position N 36°22' E 014°47'.

Length 221 m; draft 10.3 m.

Type: Ship. MMSI: 636012905.

Date/timePositionNaut miles runAvg speedWind from/ knotsBaromVisibWave heightAir tempDewpointWater temp
2014-Oct-18 23:32N 36°22' E 014°47'1414.9
2014-Oct-18 22:33N 36°28' E 014°31'1515.2
2014-Oct-18 21:33N 36°36' E 014°14'1515.2
2014-Oct-18 20:33N 36°44' E 013°58'1515.2
2014-Oct-18 19:33N 36°51' E 013°42'1515.0
2014-Oct-18 18:33N 36°59' E 013°26'3014.9
2014-Oct-18 16:33N 37°13' E 012°53'14714.7
2014-Oct-18 06:33N 38°31' E 010°14'1814.8
2014-Oct-18 05:20N 38°41' E 009°55'1214.9
2014-Oct-18 04:32N 38°48' E 009°43'1515.0
2014-Oct-18 03:33N 38°56' E 009°27'1514.6
2014-Oct-18 02:33N 39°05' E 009°12'1010.0
2014-Oct-18 01:32N 39°13' E 009°04'0 0.0
2014-Oct-18 00:32N 39°13' E 009°04'0 0.0
2014-Oct-17 23:31N 39°13' E 009°04'0 0.0
2014-Oct-17 22:31N 39°13' E 009°04'0 0.0
2014-Oct-17 21:34N 39°13' E 009°04'0 0.0
2014-Oct-17 20:33N 39°13' E 009°04'0 0.0
2014-Oct-17 19:33N 39°13' E 009°04'0 0.0
2014-Oct-17 18:32N 39°13' E 009°04'0 0.0
2014-Oct-17 17:32N 39°13' E 009°04'0 0.0
2014-Oct-17 16:31N 39°13' E 009°04'0 0.0
2014-Oct-17 15:31N 39°13' E 009°04'0 0.0
2014-Oct-17 14:33N 39°13' E 009°04'0 0.0
2014-Oct-17 13:33N 39°13' E 009°04'0 0.0
2014-Oct-17 12:33N 39°13' E 009°04'0 0.0
2014-Oct-17 11:32N 39°13' E 009°04'0 0.0
2014-Oct-17 10:32N 39°13' E 009°04'1 0.5
2014-Oct-17 09:33N 39°13' E 009°04'7 6.8
2014-Oct-17 08:33N 39°07' E 009°08'1514.7
2014-Oct-17 07:33N 38°60' E 009°24'238 6.4
2014-Oct-15 18:04N 40°27' E 014°13'713.8
2014-Oct-15 17:33N 40°32' E 014°06'1413.8
2014-Oct-15 16:34N 40°44' E 014°14'7 5.3
2014-Oct-15 15:18N 40°50' E 014°17'0 0.0
2014-Oct-15 14:33N 40°50' E 014°17'0 0.0
2014-Oct-15 13:33N 40°50' E 014°17'0 0.0
2014-Oct-15 12:32N 40°50' E 014°17'9 1.0
2014-Oct-15 03:22N 40°43' E 014°11'19014.8
2014-Oct-14 14:33N 42°03' E 010°21'1915.6
2014-Oct-14 13:21N 42°15' E 010°01'4415.6
2014-Oct-14 10:33N 42°58' E 009°60'1716.6
2014-Oct-14 09:33N 43°14' E 010°05'1716.6
2014-Oct-14 08:33N 43°30' E 010°13'6 6.0
2014-Oct-14 07:33N 43°35' E 010°18'0 0.0
2014-Oct-14 06:33N 43°35' E 010°18'0 0.0
2014-Oct-14 05:33N 43°35' E 010°18'0 0.0
2014-Oct-14 04:33N 43°35' E 010°18'0 0.0
2014-Oct-14 03:33N 43°35' E 010°18'0 0.0
2014-Oct-14 02:33N 43°35' E 010°18'0 0.0
2014-Oct-14 01:33N 43°35' E 010°18'0 0.0
2014-Oct-14 00:33N 43°35' E 010°18'0 0.0
2014-Oct-13 23:33N 43°35' E 010°18'0 0.0
2014-Oct-13 22:33N 43°35' E 010°18'0 0.0
2014-Oct-13 21:33N 43°35' E 010°18'0 0.0
2014-Oct-13 20:33N 43°35' E 010°18'0 0.0
2014-Oct-13 19:33N 43°35' E 010°18'3 2.9
2014-Oct-13 18:33N 43°32' E 010°17'4 3.9
2014-Oct-13 17:33N 43°29' E 010°13'0 0.4
2014-Oct-13 16:33N 43°29' E 010°13'2 1.8
2014-Oct-13 15:33N 43°30' E 010°11'1413.8
2014-Oct-13 14:33N 43°32' E 009°52'1615.6
2014-Oct-13 13:33N 43°42' E 009°35'1716.6
2014-Oct-13 12:33N 43°53' E 009°18'1616.1
2014-Oct-13 11:33N 44°06' E 009°06'1615.9
2014-Oct-13 10:33N 44°21' E 008°57'4 4.0
2014-Oct-13 09:33N 44°24' E 008°54'0 0.0
2014-Oct-13 08:33N 44°24' E 008°54'0 0.0
2014-Oct-13 07:33N 44°24' E 008°54'0 0.0
2014-Oct-13 06:33N 44°24' E 008°54'0 0.0
2014-Oct-13 05:33N 44°24' E 008°54'0 0.0
2014-Oct-13 04:33N 44°24' E 008°54'0 0.0
2014-Oct-13 03:33N 44°24' E 008°54'0 0.0
2014-Oct-13 02:33N 44°24' E 008°54'0 0.0
2014-Oct-13 01:33N 44°24' E 008°54'0 0.0
2014-Oct-13 00:33N 44°24' E 008°54'0 0.0
2014-Oct-12 23:33N 44°24' E 008°54'0 0.0
2014-Oct-12 22:33N 44°24' E 008°54'0 0.0
2014-Oct-12 21:33N 44°24' E 008°54'0 0.0
2014-Oct-12 20:33N 44°24' E 008°54'0 0.0
2014-Oct-12 19:33N 44°24' E 008°54'0 0.0
2014-Oct-12 18:33N 44°24' E 008°54'2 1.8
2014-Oct-12 17:33N 44°24' E 008°56'6 5.7
2014-Oct-12 16:33N 44°20' E 008°50'6 6.0
2014-Oct-12 15:33N 44°25' E 008°47'0 0.0
2014-Oct-12 14:32N 44°25' E 008°47'0 0.0
2014-Oct-12 13:33N 44°25' E 008°47'0 0.0
2014-Oct-12 12:33N 44°25' E 008°47'0 0.0
2014-Oct-12 11:33N 44°25' E 008°47'0 0.0
2014-Oct-12 10:27N 44°25' E 008°47'0 0.0
2014-Oct-12 09:33N 44°25' E 008°47'0 0.0
2014-Oct-12 08:32N 44°25' E 008°47'0 0.0
2014-Oct-12 07:33N 44°25' E 008°47'0 0.0
2014-Oct-12 06:32N 44°25' E 008°47'0 0.0
2014-Oct-12 05:33N 44°25' E 008°47'0 0.0
2014-Oct-12 03:31N 44°25' E 008°47'0 0.0
2014-Oct-12 02:33N 44°25' E 008°47'0 0.0
2014-Oct-12 01:33N 44°25' E 008°47'0 0.0
2014-Oct-12 00:30N 44°25' E 008°47'0 0.0
2014-Oct-11 23:33N 44°25' E 008°47'0 0.0
2014-Oct-11 22:25N 44°25' E 008°47'0 0.0
2014-Oct-11 21:14N 44°25' E 008°47'0 0.0
2014-Oct-11 20:23N 44°25' E 008°47'0 0.0
2014-Oct-11 19:32N 44°25' E 008°47'4 3.5
2014-Oct-11 18:32N 44°23' E 008°43'1010.5
2014-Oct-11 17:33N 44°13' E 008°49'1515.6
2014-Oct-11 16:33N 43°59' E 008°59'1515.3
2014-Oct-11 15:33N 43°46' E 009°08'1515.4
2014-Oct-11 14:33N 43°32' E 009°17'1615.6
2014-Oct-11 13:33N 43°18' E 009°27'1615.7
2014-Oct-11 12:33N 43°03' E 009°35'3315.8
2014-Oct-11 10:29N 42°32' E 009°48'9515.2
2014-Oct-11 04:14N 40°57' E 010°02'9215.7
2014-Oct-10 22:22N 39°26' E 009°48'1915.7
2014-Oct-10 21:10N 39°08' E 009°43'914.9
2014-Oct-10 20:33N 39°01' E 009°36'1312.5
2014-Oct-10 19:33N 39°01' E 009°20'1313.3
2014-Oct-10 18:33N 39°09' E 009°06'4 3.6
2014-Oct-10 17:33N 39°13' E 009°04'0 0.0
2014-Oct-10 16:33N 39°13' E 009°04'0 0.0
2014-Oct-10 15:33N 39°13' E 009°04'0 0.0
2014-Oct-10 14:33N 39°13' E 009°04'0 0.0
2014-Oct-10 13:33N 39°13' E 009°04'0 0.0
2014-Oct-10 12:33N 39°13' E 009°04'0 0.0
2014-Oct-10 11:33N 39°13' E 009°04'0 0.0
2014-Oct-10 10:33N 39°13' E 009°04'0 0.0
2014-Oct-10 09:33N 39°13' E 009°04'0 0.0
2014-Oct-10 08:33N 39°13' E 009°04'0 0.0
2014-Oct-10 07:33N 39°13' E 009°04'0 0.0
2014-Oct-10 06:33N 39°13' E 009°04'0 0.0
2014-Oct-10 05:33N 39°13' E 009°04'0 0.0
2014-Oct-10 04:33N 39°13' E 009°04'0 0.0
2014-Oct-10 03:33N 39°13' E 009°04'0 0.0
2014-Oct-10 02:33N 39°13' E 009°04'0 0.0
2014-Oct-10 01:33N 39°13' E 009°04'0 0.0
2014-Oct-10 00:33N 39°13' E 009°04'0 0.0
2014-Oct-09 23:33N 39°13' E 009°04'0 0.4
2014-Oct-09 22:33N 39°13' E 009°04'7 6.8
2014-Oct-09 21:33N 39°07' E 009°08'1 1.5
2014-Oct-09 20:33N 39°06' E 009°09'7 6.6
2014-Oct-09 19:33N 39°02' E 009°16'1616.3
2014-Oct-09 18:33N 38°53' E 009°34'1616.4
2014-Oct-09 17:33N 38°43' E 009°51'1716.5
2014-Oct-09 16:32N 38°34' E 010°08'18116.4
2014-Oct-09 05:32N 36°60' E 013°23'1616.3
2014-Oct-09 04:34N 36°52' E 013°41'1616.1
2014-Oct-09 03:34N 36°44' E 013°58'1616.3
2014-Oct-09 02:33N 36°36' E 014°16'1716.5
2014-Oct-09 01:33N 36°27' E 014°33'  

Dump ship's entire track history